#timestamp,LO_Frequency,Hit,StdDev 
1456347615.3,286047003.7,N
1456347635.1,286047001.6,N
1456347655.8,286046999.7,N
1456347675.7,286047000.1,N
1456347695.5,286047009.1,Y
1456347715.3,286047004.6,P
1456347735.2,286047006.1,N
1456347755.0,286047010.5,P
1456347755.9,286047010.5,N
1456347775.7,286047011.0,N
1456347795.6,286047013.0,N
1456347815.4,286047014.8,Y
1456347835.2,286047010.5,P
1456347855.1,286047005.6,P
1456347856.0,286047005.6,N
1456347875.8,286047002.2,N
1456347895.6,286046999.9,N
1456347915.5,286047000.5,N
1456347935.3,286047001.1,N
1456347955.1,286046998.5,N
1456347975.9,286046996.8,N
1456347995.7,286046999.6,N
1456348015.5,286047000.4,N
1456348035.4,286047000.5,N
1456348055.2,286047003.6,N
1456348075.0,286047003.7,N
1456348075.9,286047003.7,N
1456348095.8,286047003.3,N
1456348115.6,286047003.7,N
1456348135.4,286047008.4,N
1456348155.3,286047010.5,Y
1456348175.1,286047009.2,P
1456348176.0,286047009.2,N
1456348195.8,286047007.3,N
1456348215.7,286047010.0,Y
1456348235.5,286047002.5,P
1456348255.3,286047004.2,N
1456348275.1,286047006.0,P
1456348295.9,286047003.5,N
1456348315.7,286047005.7,Y
1456348335.6,286047000.3,P
1456348355.4,286046998.1,N
1456348375.2,286046999.6,N
1456348395.0,286046996.5,N
1456348395.9,286046996.5,N
1456348415.8,286046999.4,N
1456348435.6,286046995.4,N
1456348455.4,286046998.6,N
1456348475.3,286047000.8,N
1456348495.1,286046999.2,N
1456348515.8,286046999.5,N
1456348535.7,286046998.4,N
1456348555.5,286046997.3,N
1456348575.3,286046997.4,N
1456348595.2,286046995.5,N
1456348615.9,286046997.1,N
1456348635.7,286046996.6,N
1456348655.5,286046997.7,N
1456348675.4,286046995.3,N
1456348695.2,286046992.4,Y
1456348715.1,286046994.6,P
1456348716.0,286046994.6,P
1456348735.8,286046993.0,P
1456348755.6,286046993.0,Y
1456348775.5,286046999.0,P
1456348795.3,286046997.3,N
1456348815.1,286046997.6,N
1456348835.9,286046997.9,N
1456348855.7,286046993.3,Y
1456348875.5,286046998.8,P
1456348895.4,286046998.0,N
1456348915.2,286046996.5,P
1456348935.0,286046997.7,N
1456348935.9,286046997.7,Y
1456348955.8,286047001.1,P
1456348975.6,286046998.1,N
1456348995.4,286046998.5,N
1456349015.2,286047000.9,N
1456349035.1,286046998.6,N
1456349036.0,286046998.6,N
1456349055.8,286046999.6,N
1456349075.6,286046997.8,N
1456349095.5,286046997.4,N
1456349115.3,286046997.6,N
1456349135.1,286046997.8,N
1456349155.9,286046995.5,Y
1456349175.7,286046998.4,P
1456349195.5,286046999.1,P
1456349215.4,286046995.0,P
1456349235.2,286046995.4,N
1456349255.0,286046996.9,N
1456349255.9,286046996.9,N
1456349275.8,286046998.2,N
1456349295.6,286047002.7,N
1456349315.4,286047000.7,N
1456349335.3,286046998.1,N
1456349355.1,286046998.3,N
1456349356.0,286046998.3,N
1456349375.8,286046998.6,N
1456349395.7,286047001.0,N
1456349415.5,286047000.7,N
1456349435.3,286046999.3,N
1456349455.1,286047000.0,N
1456349475.9,286046998.2,N
1456349495.7,286046997.1,N
1456349515.5,286046997.0,N
1456349535.4,286046996.8,N
1456349555.2,286046996.4,N
1456349575.0,286046994.2,Y
1456349575.9,286046994.2,P
1456349595.8,286046993.4,P
1456349615.6,286046995.3,N
1456349635.4,286046995.5,N
1456349655.3,286046994.0,Y
1456349675.1,286046998.1,P
1456349695.8,286046997.9,N
1456349715.7,286046995.8,P
1456349735.5,286046995.8,Y
1456349755.3,286046996.6,P
1456349775.2,286046998.3,P
1456349795.0,286046999.2,N
1456349795.9,286046999.2,N
1456349815.7,286047000.2,N
1456349835.6,286047001.3,N
1456349855.4,286047001.5,N
1456349875.2,286047003.8,N
1456349895.1,286047001.3,N
1456349896.0,286047001.3,N
1456349915.8,286046998.3,N
1456349935.6,286047000.6,N
1456349955.5,286047002.8,N
1456349975.3,286047003.5,N
1456349995.1,286047005.7,N
1456350015.9,286047006.0,N
1456350035.7,286047009.2,Y
1456350055.5,286047009.9,P
1456350075.4,286047009.5,N
1456350095.2,286047008.0,N
1456350115.0,286047010.4,N
1456350115.9,286047010.4,N
1456350135.7,286047009.3,N
1456350155.6,286047015.1,Y
1456350175.4,286047007.9,P
1456350195.2,286047008.2,P
1456350215.1,286047010.3,P
1456350216.0,286047010.3,Y
1456350235.8,286047003.7,P
1456350255.7,286047006.7,N
1456350275.5,286047008.4,P
1456350295.3,286047010.6,Y
1456350315.2,286047009.1,P
1456350335.9,286047004.7,P
1456350355.7,286047007.3,P
1456350375.6,286047007.9,Y
1456350395.4,286046998.5,P
1456350415.2,286046998.6,N
1456350435.1,286046998.5,N
1456350436.0,286046998.5,N
1456350455.8,286046998.5,N
1456350475.6,286046999.5,N
1456350495.4,286046995.5,N
1456350515.3,286046994.6,N
1456350535.1,286046991.7,N
1456350555.8,286046990.2,N
1456350575.7,286046990.5,N
1456350595.5,286046994.4,N
1456350615.3,286046991.9,N
1456350635.2,286046990.5,N
1456350655.9,286046993.1,N
1456350675.7,286046991.6,N
1456350695.6,286046988.9,N
1456350715.4,286046991.5,N
1456350735.2,286046989.5,N
1456350755.0,286046988.5,N
1456350756.0,286046988.5,N
1456350775.8,286046990.0,N
1456350795.6,286046988.5,N
1456350815.4,286046991.5,N
1456350835.3,286046989.8,N
1456350855.1,286046989.4,N
1456350875.8,286046985.4,Y
1456350895.7,286046993.8,P
1456350915.5,286046993.1,P
1456350935.3,286046992.9,P
1456350955.2,286046996.0,Y
1456350975.0,286047002.8,P
1456350975.9,286047002.8,N
1456350995.7,286047000.1,N
1456351015.6,286046999.2,N
1456351035.4,286046994.9,N
1456351055.2,286046996.1,N
1456351075.1,286046991.7,N
1456351076.0,286046991.7,N
1456351095.8,286046994.4,N
1456351115.6,286046991.9,N
1456351135.5,286046990.1,N
1456351155.3,286046988.5,N
1456351175.1,286046989.9,N
1456351195.9,286046993.0,N
